CPA245 VHHH-VTBS

Flight info

Callsign CPA245
Flight time 2h 31m
Altitude 38000
Route PECAN V10 SIKOU/K0924S1160 A202 ASSAD/K0924F380 A202 VILAO/N0499F380 A202 RAMEI W42 PAKRI Y13 RUKSA EASTE1C
Aircraft B744/H-SDE3FGHIM1M2RWXY/LB1

Departure

Time 2026-05-04 20:02
Airport Hong Kong International Airport (VHHH)

Arrival

Time 2026-05-04 22:33
Airport Suvarnabhumi Airport (VTBS)
Time Latitude Longitude Altitude Speed Heading
2026-05-04 18:48 22.31427 113.92931 38 ft 0 kts 161°
2026-05-04 19:48 22.31439 113.92926 38 ft 2 kts 161°
2026-05-04 19:49 22.31454 113.92921 38 ft 2 kts 161°
2026-05-04 19:49 22.31468 113.92915 38 ft 2 kts 161°
2026-05-04 19:49 22.31483 113.92911 38 ft 2 kts 174°
2026-05-04 19:49 22.31498 113.92911 38 ft 2 kts 193°
2026-05-04 19:50 22.31512 113.92917 38 ft 2 kts 209°
2026-05-04 19:50 22.31525 113.92927 38 ft 2 kts 226°
2026-05-04 19:50 22.31534 113.92940 38 ft 2 kts 243°
2026-05-04 19:50 22.31537 113.92948 38 ft 1 kts 252°
2026-05-04 19:51 22.31538 113.92950 38 ft 0 kts 251°
2026-05-04 19:54 22.31536 113.92944 38 ft 2 kts 251°
2026-05-04 19:54 22.31524 113.92906 38 ft 8 kts 250°
2026-05-04 19:54 22.31498 113.92834 38 ft 9 kts 249°
2026-05-04 19:54 22.31502 113.92752 38 ft 13 kts 284°
2026-05-04 19:55 22.31534 113.92641 38 ft 17 kts 292°
2026-05-04 19:55 22.31597 113.92512 38 ft 21 kts 301°
2026-05-04 19:55 22.31637 113.92416 38 ft 12 kts 282°
2026-05-04 19:55 22.31623 113.92312 38 ft 16 kts 253°
2026-05-04 19:56 22.31581 113.92178 38 ft 21 kts 251°
2026-05-04 19:56 22.31525 113.92008 38 ft 26 kts 250°
2026-05-04 19:56 22.31459 113.91806 38 ft 31 kts 251°
2026-05-04 19:56 22.31379 113.91561 38 ft 36 kts 251°
2026-05-04 19:57 22.31290 113.91286 38 ft 41 kts 251°
2026-05-04 19:57 22.31188 113.90976 38 ft 45 kts 251°
2026-05-04 19:57 22.31086 113.90657 38 ft 43 kts 253°
2026-05-04 19:57 22.30990 113.90358 38 ft 39 kts 249°
2026-05-04 19:58 22.30908 113.90092 38 ft 32 kts 252°
2026-05-04 19:58 22.30836 113.89877 38 ft 22 kts 251°
2026-05-04 19:58 22.30830 113.89746 38 ft 15 kts 307°
2026-05-04 19:58 22.30904 113.89702 38 ft 0 kts 338°
2026-05-04 19:59 22.30905 113.89701 38 ft 1 kts 338°
2026-05-04 20:00 22.30961 113.89679 38 ft 15 kts 345°
2026-05-04 20:00 22.31058 113.89711 38 ft 19 kts 60°
2026-05-04 20:00 22.31138 113.89945 38 ft 46 kts 72°
2026-05-04 20:00 22.31283 113.90393 38 ft 80 kts 70°
2026-05-04 20:01 22.31507 113.91087 39 ft 112 kts 71°
2026-05-04 20:01 22.31798 113.91994 39 ft 140 kts 74°
2026-05-04 20:01 22.32146 113.93038 78 ft 154 kts 73°
2026-05-04 20:01 22.32567 113.94132 327 ft 164 kts 64°
2026-05-04 20:02 22.33207 113.95217 865 ft 186 kts 63°
2026-05-04 20:02 22.33775 113.96716 1208 ft 231 kts 73°
2026-05-04 20:02 22.33956 113.98358 2207 ft 221 kts 97°
2026-05-04 20:02 22.33490 113.99927 2781 ft 220 kts 122°
2026-05-04 20:03 22.32425 114.01137 3182 ft 223 kts 147°
2026-05-04 20:03 22.31002 114.01853 3536 ft 228 kts 152°
2026-05-04 20:03 22.29742 114.02911 3830 ft 234 kts 128°
2026-05-04 20:03 22.28966 114.04486 4079 ft 244 kts 106°
2026-05-04 20:04 22.28798 114.06380 4261 ft 257 kts 90°
2026-05-04 20:04 22.28601 114.08362 4333 ft 271 kts 109°
2026-05-04 20:04 22.27716 114.10167 4605 ft 273 kts 130°
2026-05-04 20:04 22.26273 114.11504 4917 ft 274 kts 152°
2026-05-04 20:05 22.24473 114.12188 5240 ft 274 kts 173°
2026-05-04 20:05 22.22572 114.12125 5546 ft 274 kts 194°
2026-05-04 20:05 22.20791 114.11347 5873 ft 273 kts 210°
2026-05-04 20:05 22.19127 114.10352 6235 ft 273 kts 208°
2026-05-04 20:06 22.17276 114.09724 6533 ft 279 kts 188°
2026-05-04 20:06 22.15329 114.09843 6852 ft 284 kts 168°
2026-05-04 20:06 22.13478 114.10708 7154 ft 291 kts 148°
2026-05-04 20:06 22.11991 114.12221 7457 ft 297 kts 128°
2026-05-04 20:07 22.11044 114.14203 7773 ft 301 kts 109°
2026-05-04 20:07 22.10459 114.16414 8119 ft 303 kts 107°
2026-05-04 20:07 22.09903 114.18436 8415 ft 304 kts 109°
2026-05-04 20:07 22.09423 114.20136 8644 ft 306 kts 108°
2026-05-04 20:08 22.08804 114.22343 8980 ft 307 kts 109°
2026-05-04 20:08 22.08177 114.24559 9303 ft 309 kts 110°
2026-05-04 20:08 22.07246 114.26663 9569 ft 307 kts 129°
2026-05-04 20:08 22.05776 114.28281 9870 ft 302 kts 147°
2026-05-04 20:09 22.04013 114.29537 10172 ft 303 kts 150°
2026-05-04 20:09 22.02237 114.30823 10461 ft 307 kts 149°
2026-05-04 20:09 22.00433 114.32156 10690 ft 312 kts 149°
2026-05-04 20:09 21.98581 114.33478 10830 ft 319 kts 155°
2026-05-04 20:10 21.96486 114.34341 10862 ft 323 kts 173°
2026-05-04 20:10 21.94236 114.34441 11062 ft 321 kts 191°
2026-05-04 20:10 21.92082 114.33769 11364 ft 316 kts 209°
2026-05-04 20:10 21.90270 114.32420 11643 ft 313 kts 226°
2026-05-04 20:11 21.88783 114.30720 11975 ft 313 kts 229°
2026-05-04 20:11 21.87206 114.29051 12255 ft 316 kts 225°
2026-05-04 20:11 21.85574 114.27441 12589 ft 317 kts 225°
2026-05-04 20:11 21.83885 114.25835 12918 ft 319 kts 224°
2026-05-04 20:12 21.82184 114.24261 13246 ft 321 kts 223°
2026-05-04 20:12 21.80472 114.22712 13580 ft 323 kts 223°
2026-05-04 20:12 21.78728 114.21156 13917 ft 324 kts 222°
2026-05-04 20:12 21.76955 114.19595 14239 ft 326 kts 222°
2026-05-04 20:13 21.75177 114.18066 14564 ft 328 kts 221°
2026-05-04 20:13 21.73363 114.16515 14920 ft 329 kts 222°
2026-05-04 20:13 21.71551 114.14957 15291 ft 330 kts 222°
2026-05-04 20:13 21.69750 114.13407 15612 ft 332 kts 222°
2026-05-04 20:14 21.67928 114.11827 15975 ft 333 kts 222°
2026-05-04 20:14 21.66112 114.10238 16284 ft 335 kts 222°
2026-05-04 20:14 21.64145 114.08839 16599 ft 342 kts 208°
2026-05-04 20:14 21.61843 114.08054 16917 ft 349 kts 197°
2026-05-04 20:15 21.59455 114.07512 17263 ft 349 kts 198°
2026-05-04 20:15 21.57072 114.06905 17596 ft 349 kts 198°
2026-05-04 20:15 21.54686 114.06296 17912 ft 351 kts 198°
2026-05-04 20:15 21.52289 114.05684 18233 ft 353 kts 198°
2026-05-04 20:16 21.49864 114.05062 18554 ft 354 kts 198°
2026-05-04 20:16 21.47429 114.04430 18876 ft 355 kts 198°
2026-05-04 20:16 21.45004 114.03786 19188 ft 356 kts 200°
2026-05-04 20:16 21.42746 114.02772 19457 ft 350 kts 215°
2026-05-04 20:17 21.40693 114.01292 19758 ft 349 kts 218°
2026-05-04 20:17 21.38659 113.99844 20062 ft 351 kts 217°
2026-05-04 20:17 21.36586 113.98388 20363 ft 352 kts 217°
2026-05-04 20:17 21.34492 113.96906 20662 ft 354 kts 217°
2026-05-04 20:18 21.32413 113.95445 20950 ft 355 kts 217°
2026-05-04 20:18 21.30356 113.93988 21238 ft 356 kts 217°
2026-05-04 20:18 21.28239 113.92489 21536 ft 357 kts 217°
2026-05-04 20:18 21.26151 113.91014 21807 ft 360 kts 217°
2026-05-04 20:19 21.24028 113.89522 22079 ft 361 kts 218°
2026-05-04 20:19 21.21946 113.88054 22352 ft 362 kts 217°
2026-05-04 20:19 21.19805 113.86556 22632 ft 364 kts 217°
2026-05-04 20:19 21.17679 113.85068 22906 ft 365 kts 217°
2026-05-04 20:20 21.15534 113.83559 23179 ft 367 kts 218°
2026-05-04 20:20 21.13402 113.82052 23436 ft 368 kts 218°
2026-05-04 20:20 21.11272 113.80520 23691 ft 369 kts 219°
2026-05-04 20:20 21.09345 113.78713 23909 ft 365 kts 233°
2026-05-04 20:21 21.07974 113.76432 24140 ft 362 kts 248°
2026-05-04 20:21 21.07124 113.73896 24392 ft 361 kts 253°
2026-05-04 20:21 21.05471 113.68811 24926 ft 364 kts 252°
2026-05-04 20:22 21.04627 113.66221 25199 ft 365 kts 252°
2026-05-04 20:22 21.03774 113.63621 25466 ft 366 kts 252°
2026-05-04 20:22 21.02935 113.61054 25706 ft 368 kts 252°
2026-05-04 20:22 21.02082 113.58439 25947 ft 370 kts 252°
2026-05-04 20:23 21.01240 113.55840 26185 ft 371 kts 252°
2026-05-04 20:23 21.00374 113.53197 26425 ft 373 kts 252°
2026-05-04 20:23 20.99526 113.50593 26667 ft 374 kts 252°
2026-05-04 20:23 20.98653 113.47916 26920 ft 375 kts 253°
2026-05-04 20:24 20.97792 113.45270 27164 ft 376 kts 253°
2026-05-04 20:24 20.96938 113.42644 27406 ft 376 kts 253°
2026-05-04 20:24 20.96070 113.39981 27650 ft 377 kts 253°
2026-05-04 20:24 20.95201 113.37305 27882 ft 379 kts 253°
2026-05-04 20:25 20.94314 113.34599 28117 ft 380 kts 252°
2026-05-04 20:25 20.93444 113.31924 28360 ft 381 kts 253°
2026-05-04 20:25 20.92564 113.29234 28592 ft 383 kts 252°
2026-05-04 20:25 20.91677 113.26524 28825 ft 385 kts 253°
2026-05-04 20:26 20.90796 113.23827 29070 ft 386 kts 252°
2026-05-04 20:26 20.89900 113.21085 29317 ft 387 kts 252°
2026-05-04 20:26 20.89009 113.18364 29556 ft 389 kts 253°
2026-05-04 20:26 20.88100 113.15590 29774 ft 391 kts 253°
2026-05-04 20:27 20.87198 113.12826 29995 ft 393 kts 253°
2026-05-04 20:27 20.86295 113.10062 30221 ft 395 kts 253°
2026-05-04 20:27 20.85383 113.07271 30449 ft 396 kts 253°
2026-05-04 20:27 20.84478 113.04505 30680 ft 398 kts 252°
2026-05-04 20:28 20.83542 113.01669 30916 ft 399 kts 253°
2026-05-04 20:28 20.82631 112.98896 31151 ft 400 kts 253°
2026-05-04 20:28 20.81695 112.96047 31395 ft 402 kts 252°
2026-05-04 20:28 20.80767 112.93217 31637 ft 403 kts 252°
2026-05-04 20:29 20.79829 112.90363 31886 ft 403 kts 252°
2026-05-04 20:29 20.78893 112.87522 32126 ft 404 kts 252°
2026-05-04 20:29 20.77957 112.84680 32354 ft 406 kts 252°
2026-05-04 20:29 20.77016 112.81813 32589 ft 407 kts 252°
2026-05-04 20:30 20.76068 112.78931 32827 ft 408 kts 252°
2026-05-04 20:30 20.75117 112.76058 33047 ft 410 kts 252°
2026-05-04 20:30 20.74143 112.73119 33214 ft 413 kts 252°
2026-05-04 20:30 20.73183 112.70206 33395 ft 415 kts 252°
2026-05-04 20:31 20.72202 112.67263 33574 ft 416 kts 252°
2026-05-04 20:31 20.71239 112.64348 33726 ft 418 kts 252°
2026-05-04 20:31 20.70249 112.61376 33887 ft 420 kts 252°
2026-05-04 20:31 20.69267 112.58419 34046 ft 421 kts 252°
2026-05-04 20:32 20.68290 112.55463 34202 ft 423 kts 252°
2026-05-04 20:32 20.67298 112.52467 34370 ft 425 kts 252°
2026-05-04 20:32 20.66297 112.49460 34538 ft 427 kts 252°
2026-05-04 20:32 20.65299 112.46448 34712 ft 428 kts 252°
2026-05-04 20:33 20.64306 112.43452 34883 ft 430 kts 252°
2026-05-04 20:33 20.63296 112.40435 35060 ft 431 kts 252°
2026-05-04 20:33 20.62282 112.37394 35233 ft 432 kts 252°
2026-05-04 20:33 20.61272 112.34349 35407 ft 433 kts 252°
2026-05-04 20:34 20.60257 112.31315 35594 ft 434 kts 252°
2026-05-04 20:34 20.59226 112.28249 35795 ft 435 kts 252°
2026-05-04 20:34 20.58206 112.25208 35983 ft 437 kts 252°
2026-05-04 20:34 20.57175 112.22118 36206 ft 438 kts 252°
2026-05-04 20:35 20.56223 112.19019 36360 ft 438 kts 258°
2026-05-04 20:35 20.55846 112.15797 36507 ft 438 kts 271°
2026-05-04 20:35 20.56192 112.12555 36635 ft 439 kts 283°
2026-05-04 20:35 20.57246 112.09481 36771 ft 443 kts 295°
2026-05-04 20:36 20.58746 112.06544 36971 ft 444 kts 296°
2026-05-04 20:36 20.60160 112.03598 37175 ft 445 kts 294°
2026-05-04 20:36 20.61542 112.00613 37367 ft 446 kts 294°
2026-05-04 20:36 20.62911 111.97649 37588 ft 447 kts 294°
2026-05-04 20:37 20.64272 111.94655 37801 ft 449 kts 294°
2026-05-04 20:37 20.65650 111.91626 37934 ft 454 kts 294°
2026-05-04 20:37 20.68424 111.85484 37982 ft 457 kts 294°
2026-05-04 20:38 20.71206 111.79330 37954 ft 458 kts 294°
2026-05-04 20:38 20.73958 111.73211 37948 ft 458 kts 294°
2026-05-04 20:39 20.76726 111.67062 37946 ft 458 kts 294°
2026-05-04 20:39 20.79507 111.60887 37950 ft 458 kts 294°
2026-05-04 20:40 20.82237 111.54724 37940 ft 458 kts 291°
2026-05-04 20:40 20.83149 111.51463 37906 ft 456 kts 279°
2026-05-04 20:40 20.83339 111.48083 37926 ft 456 kts 267°
2026-05-04 20:41 20.82804 111.44726 37937 ft 459 kts 255°
2026-05-04 20:41 20.81678 111.41560 37972 ft 460 kts 250°
2026-05-04 20:41 20.79385 111.35152 37977 ft 461 kts 252°
2026-05-04 20:42 20.77162 111.28650 37958 ft 461 kts 252°
2026-05-04 20:42 20.74969 111.22169 37951 ft 461 kts 252°
2026-05-04 20:43 20.72780 111.15685 37939 ft 461 kts 252°
2026-05-04 20:43 20.70577 111.09164 37946 ft 462 kts 252°
2026-05-04 20:44 20.68380 111.02678 37941 ft 461 kts 252°
2026-05-04 20:44 20.66186 110.96198 37944 ft 460 kts 252°
2026-05-04 20:45 20.64040 110.89727 37949 ft 460 kts 252°
2026-05-04 20:45 20.61839 110.83234 37949 ft 460 kts 252°
2026-05-04 20:46 20.59673 110.76811 37944 ft 460 kts 252°
2026-05-04 20:46 20.57482 110.70312 37950 ft 459 kts 252°
2026-05-04 20:47 20.55309 110.63869 37945 ft 460 kts 252°
2026-05-04 20:47 20.53118 110.57410 37951 ft 460 kts 252°
2026-05-04 20:48 20.50917 110.50892 37932 ft 462 kts 249°
2026-05-04 20:48 20.49332 110.47825 37912 ft 466 kts 237°
2026-05-04 20:48 20.47255 110.45152 37955 ft 468 kts 232°
2026-05-04 20:49 20.43063 110.39790 37968 ft 467 kts 234°
2026-05-04 20:49 20.38920 110.34404 37964 ft 467 kts 234°
2026-05-04 20:50 20.34775 110.29012 37967 ft 467 kts 234°
2026-05-04 20:50 20.30679 110.23607 37962 ft 466 kts 235°
2026-05-04 20:51 20.26595 110.18183 37957 ft 466 kts 234°
2026-05-04 20:51 20.22536 110.12774 37950 ft 466 kts 234°
2026-05-04 20:52 20.18466 110.07363 37950 ft 466 kts 235°
2026-05-04 20:52 20.14409 110.01959 37956 ft 466 kts 235°
2026-05-04 20:53 20.10299 109.96491 37951 ft 467 kts 234°
2026-05-04 20:53 20.06204 109.91040 37949 ft 467 kts 234°
2026-05-04 20:54 20.02091 109.85576 37945 ft 467 kts 234°
2026-05-04 20:54 19.98007 109.80160 37945 ft 466 kts 234°
2026-05-04 20:55 19.93915 109.74742 37950 ft 466 kts 234°
2026-05-04 20:55 19.89821 109.69320 37950 ft 465 kts 234°
2026-05-04 20:56 19.85728 109.63900 37948 ft 465 kts 235°
2026-05-04 20:56 19.81641 109.58495 37949 ft 465 kts 235°
2026-05-04 20:57 19.77549 109.53086 37953 ft 464 kts 234°
2026-05-04 20:57 19.73459 109.47688 37955 ft 465 kts 234°
2026-05-04 20:58 19.69384 109.42313 37955 ft 465 kts 234°
2026-05-04 20:58 19.65279 109.36906 37952 ft 466 kts 234°
2026-05-04 20:59 19.61188 109.31524 37962 ft 467 kts 234°
2026-05-04 20:59 19.57063 109.26118 37960 ft 468 kts 234°
2026-05-04 21:00 19.52983 109.20725 37956 ft 466 kts 234°
2026-05-04 21:00 19.48857 109.15338 37956 ft 466 kts 233°
2026-05-04 21:01 19.44729 109.09994 37957 ft 465 kts 233°
2026-05-04 21:01 19.40597 109.04648 37958 ft 464 kts 233°
2026-05-04 21:02 19.36490 108.99336 37951 ft 465 kts 234°
2026-05-04 21:02 19.32317 108.93961 37950 ft 465 kts 233°
2026-05-04 21:03 19.28211 108.88632 37945 ft 464 kts 234°
2026-05-04 21:03 19.24130 108.83283 37943 ft 464 kts 233°
2026-05-04 21:04 19.19943 108.77934 37950 ft 464 kts 234°
2026-05-04 21:04 19.15816 108.72627 37947 ft 465 kts 233°
2026-05-04 21:05 19.11667 108.67281 37946 ft 465 kts 233°
2026-05-04 21:05 19.07517 108.61941 37943 ft 465 kts 233°
2026-05-04 21:06 19.03375 108.56612 37944 ft 464 kts 234°
2026-05-04 21:06 18.99240 108.51295 37941 ft 464 kts 234°
2026-05-04 21:07 18.95092 108.45966 37935 ft 465 kts 234°
2026-05-04 21:07 18.90968 108.40679 37932 ft 465 kts 233°
2026-05-04 21:08 18.86808 108.35349 37931 ft 467 kts 234°
2026-05-04 21:08 18.82647 108.30015 37941 ft 468 kts 233°
2026-05-04 21:09 18.78487 108.24689 37933 ft 468 kts 233°
2026-05-04 21:09 18.74337 108.19380 37929 ft 468 kts 233°
2026-05-04 21:10 18.70134 108.14008 37928 ft 468 kts 233°
2026-05-04 21:10 18.65946 108.08662 37930 ft 468 kts 233°
2026-05-04 21:11 18.61764 108.03333 37934 ft 469 kts 233°
2026-05-04 21:11 18.57566 107.97982 37937 ft 469 kts 233°
2026-05-04 21:12 18.53367 107.92634 37940 ft 469 kts 233°
2026-05-04 21:12 18.49168 107.87283 37940 ft 469 kts 233°
2026-05-04 21:13 18.44984 107.81967 37927 ft 469 kts 233°
2026-05-04 21:13 18.40776 107.76645 37916 ft 468 kts 233°
2026-05-04 21:14 18.36582 107.71308 37920 ft 469 kts 234°
2026-05-04 21:14 18.32641 107.65748 37913 ft 467 kts 241°
2026-05-04 21:15 18.29162 107.59945 37925 ft 467 kts 240°
2026-05-04 21:15 18.25640 107.54124 37918 ft 466 kts 240°
2026-05-04 21:16 18.22137 107.48338 37921 ft 466 kts 240°
2026-05-04 21:16 18.18627 107.42550 37922 ft 466 kts 240°
2026-05-04 21:17 18.15088 107.36716 37925 ft 467 kts 240°
2026-05-04 21:17 18.11565 107.30920 37934 ft 468 kts 240°
2026-05-04 21:18 18.08059 107.25104 37928 ft 469 kts 240°
2026-05-04 21:18 18.04528 107.19289 37921 ft 469 kts 239°
2026-05-04 21:19 18.00970 107.13464 37924 ft 469 kts 239°
2026-05-04 21:19 17.97416 107.07652 37919 ft 469 kts 240°
2026-05-04 21:20 17.93876 107.01874 37921 ft 470 kts 240°
2026-05-04 21:20 17.90327 106.96045 37931 ft 470 kts 240°
2026-05-04 21:21 17.86821 106.90238 37926 ft 470 kts 239°
2026-05-04 21:21 17.83264 106.84417 37934 ft 469 kts 240°
2026-05-04 21:22 17.79722 106.78606 37934 ft 469 kts 240°
2026-05-04 21:22 17.76198 106.72826 37933 ft 469 kts 240°
2026-05-04 21:23 17.72636 106.67004 37933 ft 469 kts 240°
2026-05-04 21:23 17.69114 106.61187 37938 ft 468 kts 240°
2026-05-04 21:24 17.65578 106.55394 37932 ft 469 kts 239°
2026-05-04 21:24 17.62014 106.49611 37940 ft 468 kts 240°
2026-05-04 21:25 17.58483 106.43851 37937 ft 468 kts 240°
2026-05-04 21:25 17.54910 106.38037 37944 ft 468 kts 240°
2026-05-04 21:26 17.51337 106.32228 37962 ft 468 kts 240°
2026-05-04 21:26 17.47774 106.26441 37963 ft 469 kts 240°
2026-05-04 21:27 17.44200 106.20637 37974 ft 468 kts 240°
2026-05-04 21:27 17.40643 106.14876 37976 ft 468 kts 240°
2026-05-04 21:28 17.37077 106.09041 37982 ft 468 kts 240°
2026-05-04 21:28 17.33556 106.03247 37979 ft 468 kts 240°
2026-05-04 21:29 17.30025 105.97417 37965 ft 469 kts 240°
2026-05-04 21:29 17.26502 105.91619 37956 ft 469 kts 240°
2026-05-04 21:30 17.22962 105.85785 37948 ft 469 kts 240°
2026-05-04 21:30 17.19419 105.79954 37948 ft 469 kts 240°
2026-05-04 21:31 17.14127 105.71248 37936 ft 468 kts 240°
2026-05-04 21:32 17.10605 105.65453 37935 ft 469 kts 240°
2026-05-04 21:32 17.07069 105.59637 37934 ft 470 kts 240°
2026-05-04 21:33 17.03532 105.53829 37931 ft 470 kts 240°
2026-05-04 21:33 17.00010 105.48055 37923 ft 471 kts 240°
2026-05-04 21:34 16.96442 105.42218 37921 ft 472 kts 240°
2026-05-04 21:34 16.92878 105.36390 37923 ft 472 kts 239°
2026-05-04 21:35 16.89326 105.30592 37928 ft 472 kts 239°
2026-05-04 21:35 16.85765 105.24713 37911 ft 470 kts 240°
2026-05-04 21:36 16.82223 105.18964 37913 ft 469 kts 239°
2026-05-04 21:36 16.78659 105.13161 37905 ft 470 kts 239°
2026-05-04 21:37 16.75101 105.07384 37914 ft 471 kts 239°
2026-05-04 21:37 16.71531 105.01578 37905 ft 472 kts 239°
2026-05-04 21:38 16.67946 104.95758 37909 ft 472 kts 239°
2026-05-04 21:38 16.64358 104.89938 37901 ft 472 kts 239°
2026-05-04 21:39 16.60770 104.84130 37906 ft 471 kts 239°
2026-05-04 21:39 16.57219 104.78342 37903 ft 471 kts 239°
2026-05-04 21:40 16.53072 104.72982 37906 ft 472 kts 229°
2026-05-04 21:40 16.48609 104.67838 37912 ft 472 kts 230°
2026-05-04 21:41 16.44158 104.62680 37906 ft 472 kts 231°
2026-05-04 21:41 16.39741 104.57549 37909 ft 473 kts 230°
2026-05-04 21:42 16.35280 104.52371 37908 ft 473 kts 230°
2026-05-04 21:42 16.30843 104.47221 37914 ft 473 kts 230°
2026-05-04 21:43 16.26428 104.42046 37912 ft 473 kts 230°
2026-05-04 21:43 16.21939 104.36953 37919 ft 474 kts 230°
2026-05-04 21:44 16.17414 104.31792 37923 ft 474 kts 230°
2026-05-04 21:44 16.12935 104.26688 37911 ft 474 kts 230°
2026-05-04 21:45 16.08469 104.21581 37903 ft 473 kts 230°
2026-05-04 21:45 16.04061 104.16461 37888 ft 473 kts 230°
2026-05-04 21:46 15.99629 104.11314 37879 ft 472 kts 230°
2026-05-04 21:46 15.95226 104.06190 37883 ft 473 kts 230°
2026-05-04 21:47 15.90793 104.01028 37882 ft 473 kts 230°
2026-05-04 21:47 15.86382 103.95901 37881 ft 473 kts 230°
2026-05-04 21:48 15.81965 103.90762 37881 ft 472 kts 230°
2026-05-04 21:48 15.77546 103.85622 37883 ft 471 kts 230°
2026-05-04 21:49 15.73183 103.80554 37883 ft 469 kts 230°
2026-05-04 21:49 15.68790 103.75455 37885 ft 470 kts 230°
2026-05-04 21:50 15.64356 103.70308 37887 ft 472 kts 230°
2026-05-04 21:50 15.59905 103.65147 37886 ft 471 kts 230°
2026-05-04 21:51 15.55476 103.60020 37880 ft 471 kts 230°
2026-05-04 21:51 15.51055 103.54903 37884 ft 471 kts 230°
2026-05-04 21:52 15.46656 103.49816 37882 ft 470 kts 230°
2026-05-04 21:52 15.42237 103.44710 37880 ft 470 kts 230°
2026-05-04 21:53 15.37835 103.39628 37886 ft 470 kts 230°
2026-05-04 21:53 15.33453 103.34566 37883 ft 469 kts 230°
2026-05-04 21:54 15.29048 103.29481 37892 ft 469 kts 230°
2026-05-04 21:54 15.24652 103.24417 37888 ft 468 kts 230°
2026-05-04 21:55 15.20248 103.19342 37893 ft 468 kts 230°
2026-05-04 21:55 15.15869 103.14304 37893 ft 468 kts 230°
2026-05-04 21:56 15.11459 103.09247 37891 ft 468 kts 230°
2026-05-04 21:56 15.07073 103.04187 37892 ft 468 kts 230°
2026-05-04 21:57 15.02223 102.99606 37852 ft 472 kts 213°
2026-05-04 21:57 14.96416 102.96188 37906 ft 472 kts 214°
2026-05-04 21:58 14.90721 102.92699 37894 ft 472 kts 216°
2026-05-04 21:58 14.88174 102.90564 37869 ft 468 kts 228°
2026-05-04 21:58 14.86147 102.87899 37884 ft 464 kts 240°
2026-05-04 21:58 14.84789 102.84875 38186 ft 452 kts 253°
2026-05-04 21:59 14.83914 102.81869 39705 ft 419 kts 254°
2026-05-04 21:59 14.83098 102.79140 41548 ft 383 kts 254°
2026-05-04 21:59 14.82330 102.76606 42621 ft 360 kts 254°
2026-05-04 21:59 14.81582 102.74150 42819 ft 345 kts 254°
2026-05-04 22:00 14.80861 102.71793 42933 ft 339 kts 254°
2026-05-04 22:00 14.80146 102.69461 42521 ft 340 kts 254°
2026-05-04 22:00 14.79428 102.67112 42269 ft 338 kts 254°
2026-05-04 22:00 14.78708 102.64750 42053 ft 337 kts 254°
2026-05-04 22:01 14.77973 102.62329 40232 ft 376 kts 254°
2026-05-04 22:01 14.77168 102.59629 38148 ft 410 kts 254°
2026-05-04 22:01 14.76382 102.56960 39923 ft 366 kts 254°
2026-05-04 22:01 14.75627 102.54388 39441 ft 383 kts 254°
2026-05-04 22:02 14.74840 102.51764 39796 ft 376 kts 254°
2026-05-04 22:02 14.74030 102.49077 38525 ft 412 kts 253°
2026-05-04 22:02 14.73145 102.46156 37209 ft 437 kts 253°
2026-05-04 22:02 14.72209 102.43103 36549 ft 449 kts 253°
2026-05-04 22:03 14.71256 102.39995 35865 ft 455 kts 253°
2026-05-04 22:03 14.70289 102.36847 35285 ft 452 kts 253°
2026-05-04 22:03 14.69327 102.33724 34688 ft 447 kts 253°
2026-05-04 22:03 14.68389 102.30698 34111 ft 444 kts 253°
2026-05-04 22:04 14.67430 102.27594 33400 ft 443 kts 253°
2026-05-04 22:04 14.66492 102.24560 32726 ft 439 kts 253°
2026-05-04 22:04 14.65550 102.21529 32107 ft 434 kts 253°
2026-05-04 22:04 14.64635 102.18555 31531 ft 429 kts 253°
2026-05-04 22:05 14.63719 102.15597 30972 ft 425 kts 253°
2026-05-04 22:05 14.62804 102.12647 30431 ft 422 kts 253°
2026-05-04 22:05 14.61902 102.09737 29983 ft 418 kts 253°
2026-05-04 22:05 14.61018 102.06890 29620 ft 416 kts 253°
2026-05-04 22:06 14.60125 102.04024 29304 ft 416 kts 253°
2026-05-04 22:06 14.59227 102.01136 28997 ft 415 kts 253°
2026-05-04 22:06 14.58344 101.98286 28699 ft 414 kts 253°
2026-05-04 22:06 14.57455 101.95408 28380 ft 414 kts 253°
2026-05-04 22:07 14.56584 101.92575 28062 ft 412 kts 253°
2026-05-04 22:07 14.55563 101.89774 27629 ft 411 kts 248°
2026-05-04 22:07 14.54417 101.87037 27209 ft 408 kts 248°
2026-05-04 22:07 14.53336 101.84319 26767 ft 405 kts 248°
2026-05-04 22:08 14.52253 101.81629 26334 ft 402 kts 248°
2026-05-04 22:08 14.51179 101.78951 25900 ft 400 kts 248°
2026-05-04 22:08 14.50117 101.76299 25475 ft 397 kts 248°
2026-05-04 22:08 14.49056 101.73653 25049 ft 396 kts 248°
2026-05-04 22:09 14.47990 101.71000 24623 ft 394 kts 248°
2026-05-04 22:09 14.46940 101.68384 24205 ft 392 kts 248°
2026-05-04 22:09 14.45880 101.65743 23778 ft 390 kts 248°
2026-05-04 22:09 14.44841 101.63157 23368 ft 388 kts 248°
2026-05-04 22:10 14.43803 101.60571 22955 ft 386 kts 248°
2026-05-04 22:10 14.42771 101.57998 22548 ft 384 kts 248°
2026-05-04 22:10 14.41735 101.55415 22140 ft 382 kts 248°
2026-05-04 22:10 14.40714 101.52873 21749 ft 380 kts 248°
2026-05-04 22:11 14.39691 101.50331 21350 ft 378 kts 248°
2026-05-04 22:11 14.38691 101.47850 20962 ft 376 kts 248°
2026-05-04 22:11 14.37679 101.45335 20557 ft 375 kts 248°
2026-05-04 22:11 14.36676 101.42849 20156 ft 373 kts 248°
2026-05-04 22:12 14.35678 101.40379 19753 ft 371 kts 248°
2026-05-04 22:12 14.34674 101.37891 19337 ft 370 kts 248°
2026-05-04 22:12 14.33693 101.35450 18926 ft 367 kts 248°
2026-05-04 22:12 14.32713 101.33015 18497 ft 366 kts 248°
2026-05-04 22:13 14.31738 101.30592 18057 ft 365 kts 246°
2026-05-04 22:13 14.30430 101.28383 17673 ft 362 kts 230°
2026-05-04 22:13 14.28577 101.26599 17389 ft 359 kts 218°
2026-05-04 22:13 14.26608 101.25004 17109 ft 362 kts 219°
2026-05-04 22:14 14.24658 101.23350 16834 ft 362 kts 219°
2026-05-04 22:14 14.22707 101.21709 16541 ft 361 kts 219°
2026-05-04 22:14 14.20736 101.20051 16230 ft 359 kts 219°
2026-05-04 22:14 14.18814 101.18431 15930 ft 357 kts 219°
2026-05-04 22:15 14.16870 101.16791 15611 ft 356 kts 219°
2026-05-04 22:15 14.14965 101.15181 15323 ft 354 kts 219°
2026-05-04 22:15 14.13077 101.13579 15138 ft 350 kts 219°
2026-05-04 22:15 14.11199 101.11983 14979 ft 351 kts 219°
2026-05-04 22:16 14.09260 101.10371 14698 ft 355 kts 219°
2026-05-04 22:16 14.07335 101.08758 14355 ft 354 kts 219°
2026-05-04 22:16 14.05420 101.07151 14015 ft 351 kts 219°
2026-05-04 22:16 14.03521 101.05557 13682 ft 349 kts 218°
2026-05-04 22:17 14.01624 101.03964 13346 ft 347 kts 218°
2026-05-04 22:17 13.99764 101.02399 13053 ft 344 kts 218°
2026-05-04 22:17 13.97916 101.00840 12873 ft 341 kts 219°
2026-05-04 22:17 13.96066 100.99280 12747 ft 342 kts 218°
2026-05-04 22:18 13.94181 100.97716 12606 ft 343 kts 218°
2026-05-04 22:18 13.92299 100.96138 12444 ft 343 kts 218°
2026-05-04 22:18 13.90439 100.94582 12266 ft 341 kts 218°
2026-05-04 22:18 13.88575 100.93021 12069 ft 339 kts 218°
2026-05-04 22:19 13.86741 100.91482 11883 ft 337 kts 218°
2026-05-04 22:19 13.84926 100.89957 11724 ft 331 kts 218°
2026-05-04 22:19 13.83012 100.88638 11380 ft 327 kts 204°
2026-05-04 22:19 13.80865 100.87920 11029 ft 318 kts 192°
2026-05-04 22:20 13.78721 100.87380 10809 ft 307 kts 193°
2026-05-04 22:20 13.76701 100.86820 10676 ft 293 kts 193°
2026-05-04 22:20 13.74747 100.86286 10583 ft 280 kts 193°
2026-05-04 22:20 13.72818 100.85755 10241 ft 293 kts 193°
2026-05-04 22:21 13.70805 100.85212 9737 ft 303 kts 193°
2026-05-04 22:21 13.68778 100.84654 9481 ft 294 kts 193°
2026-05-04 22:21 13.66799 100.84109 9171 ft 290 kts 193°
2026-05-04 22:21 13.64823 100.83567 8623 ft 294 kts 192°
2026-05-04 22:22 13.62850 100.83031 8305 ft 288 kts 193°
2026-05-04 22:22 13.60930 100.82508 8008 ft 283 kts 193°
2026-05-04 22:22 13.59014 100.81988 7479 ft 287 kts 193°
2026-05-04 22:22 13.57059 100.81454 7163 ft 281 kts 192°
2026-05-04 22:23 13.55174 100.80939 6859 ft 278 kts 192°
2026-05-04 22:23 13.53275 100.80421 6338 ft 282 kts 192°
2026-05-04 22:23 13.51395 100.79905 6066 ft 275 kts 192°
2026-05-04 22:23 13.49524 100.79393 5734 ft 271 kts 193°
2026-05-04 22:24 13.47718 100.78899 5536 ft 262 kts 193°
2026-05-04 22:24 13.45968 100.78406 5397 ft 252 kts 193°
2026-05-04 22:24 13.44276 100.77946 5268 ft 242 kts 192°
2026-05-04 22:24 13.42677 100.77510 5168 ft 230 kts 193°
2026-05-04 22:25 13.41164 100.77097 5114 ft 214 kts 192°
2026-05-04 22:25 13.39785 100.76619 4913 ft 206 kts 208°
2026-05-04 22:25 13.38717 100.75633 4513 ft 212 kts 234°
2026-05-04 22:25 13.38190 100.74218 4120 ft 212 kts 264°
2026-05-04 22:26 13.38360 100.72765 3906 ft 204 kts 291°
2026-05-04 22:26 13.39031 100.71456 3539 ft 205 kts 301°
2026-05-04 22:26 13.39728 100.70212 3312 ft 199 kts 304°
2026-05-04 22:26 13.40713 100.69251 3003 ft 194 kts 334°
2026-05-04 22:27 13.41971 100.68935 2847 ft 182 kts
2026-05-04 22:27 13.43213 100.69223 2869 ft 183 kts 19°
2026-05-04 22:27 13.44494 100.69594 2851 ft 195 kts 15°
2026-05-04 22:27 13.45823 100.69945 2645 ft 195 kts 17°
2026-05-04 22:28 13.47148 100.70317 2427 ft 193 kts 16°
2026-05-04 22:28 13.48443 100.70655 2191 ft 188 kts 16°
2026-05-04 22:28 13.49706 100.70992 2052 ft 184 kts 16°
2026-05-04 22:28 13.50917 100.71308 1948 ft 170 kts 15°
2026-05-04 22:29 13.52024 100.71594 1821 ft 156 kts 16°
2026-05-04 22:29 13.53069 100.71874 1802 ft 153 kts 15°
2026-05-04 22:29 13.54112 100.72147 1822 ft 152 kts 16°
2026-05-04 22:29 13.55130 100.72414 1850 ft 152 kts 15°
2026-05-04 22:30 13.56169 100.72684 1909 ft 149 kts 15°
2026-05-04 22:30 13.57197 100.72958 1895 ft 156 kts 16°
2026-05-04 22:30 13.58258 100.73238 1715 ft 157 kts 16°
2026-05-04 22:30 13.59314 100.73515 1451 ft 152 kts 16°
2026-05-04 22:31 13.60326 100.73785 1201 ft 150 kts 15°
2026-05-04 22:31 13.61334 100.74049 979 ft 146 kts 15°
2026-05-04 22:31 13.62328 100.74308 758 ft 146 kts 14°
2026-05-04 22:31 13.63331 100.74568 554 ft 145 kts 14°
2026-05-04 22:32 13.64316 100.74827 344 ft 145 kts 14°
2026-05-04 22:32 13.65291 100.75085 147 ft 143 kts 14°
2026-05-04 22:32 13.66260 100.75334 16 ft 137 kts 11°
2026-05-04 22:32 13.67028 100.75518 15 ft 84 kts 21°
2026-05-04 22:33 13.67434 100.75645 15 ft 38 kts 18°
2026-05-04 22:33 13.67549 100.75680 15 ft 0 kts 15°
2026-05-04 22:33 13.67566 100.75684 15 ft 12 kts 15°
2026-05-04 22:33 13.67769 100.75723 15 ft 41 kts
2026-05-04 22:34 13.67982 100.75722 15 ft 17 kts 345°
2026-05-04 22:34 13.68016 100.75712 15 ft 0 kts 341°
2026-05-04 22:34 13.68023 100.75710 15 ft 2 kts 340°
2026-05-04 22:35 13.68044 100.75701 15 ft 4 kts 340°
2026-05-04 22:35 13.68080 100.75690 15 ft 6 kts 344°
2026-05-04 22:35 13.68131 100.75675 15 ft 8 kts 351°
2026-05-04 22:35 13.68196 100.75671 16 ft 9 kts 356°
2026-05-04 22:36 13.68265 100.75665 17 ft 9 kts 345°
2026-05-04 22:36 13.68316 100.75621 18 ft 10 kts 299°
2026-05-04 22:36 13.68340 100.75547 18 ft 11 kts 286°
2026-05-04 22:36 13.68364 100.75457 18 ft 14 kts 284°
2026-05-04 22:37 13.68388 100.75349 18 ft 16 kts 282°
2026-05-04 22:37 13.68417 100.75225 18 ft 19 kts 285°
2026-05-04 22:37 13.68491 100.75114 18 ft 19 kts 348°
2026-05-04 22:37 13.68628 100.75140 18 ft 20 kts 13°
2026-05-04 22:38 13.68766 100.75173 18 ft 19 kts 14°
2026-05-04 22:38 13.68814 100.75187 18 ft 0 kts 15°
2026-05-04 22:41 13.68817 100.75188 18 ft 2 kts 15°
2026-05-04 22:41 13.68849 100.75201 19 ft 5 kts 35°
2026-05-04 22:41 13.68873 100.75231 19 ft 5 kts 64°
2026-05-04 22:41 13.68880 100.75270 18 ft 4 kts 94°
2026-05-04 22:42 13.68877 100.75286 18 ft 1 kts 106°
2026-05-04 22:42 13.68877 100.75287 18 ft 0 kts 106°